{"data":{"norad_id":54064,"epoch":"2026-05-24T17:48:08.383680Z","epoch_age_seconds":90515,"freshness":"FRESH","line1":"1 54064U 22136P   26144.74176370 -.00000807  00000+0 -32617-4 0  9994","line2":"2 54064  53.2147 317.8901 0001268  89.9192 270.1945 15.08836672198953","mean_motion":15.08836672,"eccentricity":0.0001268,"inclination_deg":53.2147,"raan_deg":317.8901,"arg_perigee_deg":89.9192,"mean_anomaly_deg":270.1945,"bstar":-3.2617e-5,"rev_number":19895,"period_min":95.437765181784,"perigee_km":538.87637282424,"apogee_km":540.63074987059,"semimajor_km":6917.8905613474,"source":"CELESTRAK","updated_at":"2026-05-25T13:38:17.649736Z"}}